#timestamp,LO_Frequency,Hit,StdDev 
1560333615.7,286047003.0,N
1560333635.6,286047005.6,N
1560333655.4,286047007.6,N
1560333675.2,286047006.8,N
1560333695.1,286047006.4,N
1560333696.0,286047006.4,N
1560333715.8,286047008.7,N
1560333735.6,286047006.2,N
1560333755.5,286047005.3,N
1560333775.3,286047003.3,N
1560333795.2,286047003.6,N
1560333815.9,286047003.3,N
1560333835.7,286047004.6,N
1560333855.6,286047007.5,N
1560333875.4,286047006.6,N
1560333895.2,286047008.8,N
1560333915.1,286047007.0,N
1560333916.0,286047007.0,N
1560333935.8,286047005.0,N
1560333955.7,286047003.0,N
1560333975.5,286047001.7,N
1560333995.3,286047004.3,N
1560334015.2,286047003.9,N
1560334035.0,286047003.2,N
1560334035.9,286047003.2,N
1560334055.7,286047001.9,N
1560334075.6,286047002.5,N
1560334095.4,286047002.1,N
1560334115.3,286047002.0,N
1560334135.1,286047003.2,N
1560334136.0,286047003.2,N
1560334155.8,286047003.1,N
1560334175.7,286047005.6,N
1560334195.5,286047001.3,N
1560334215.4,286047001.5,N
1560334235.2,286047002.8,N
1560334255.0,286047000.9,N
1560334255.9,286047000.9,N
1560334275.8,286046997.4,N
1560334295.6,286046995.2,N
1560334315.4,286046995.2,N
1560334335.3,286046995.2,N
1560334355.1,286046997.2,N
1560334375.9,286046996.6,N
1560334395.7,286046997.9,N
1560334415.5,286046995.1,N
1560334435.4,286046995.2,N
1560334455.2,286046995.1,N
1560334475.0,286046993.3,N
1560334475.9,286046993.3,N
1560334495.8,286046992.2,N
1560334515.6,286046996.3,N
1560334535.5,286046995.4,N
1560334555.3,286046995.1,N
1560334575.1,286046995.5,N
1560334595.9,286046994.1,N
1560334615.7,286046991.7,N
1560334635.5,286046992.2,N
1560334655.4,286046994.1,N
1560334675.2,286046995.6,N
1560334695.1,286046996.3,N
1560334696.0,286046996.3,N
1560334715.8,286046992.4,N
1560334735.6,286046989.9,Y
1560334755.5,286046991.9,P
1560334775.3,286046992.3,P
1560334795.1,286046992.8,P
1560334815.9,286046990.5,Y
1560334835.7,286046997.2,P
1560334855.6,286046997.7,N
1560334875.4,286046997.7,N
1560334895.2,286046996.3,N
1560334915.1,286046994.0,Y
1560334916.0,286046994.0,P
1560334935.8,286046997.4,N
1560334955.7,286046996.4,N
1560334975.5,286046997.9,N
1560334995.3,286046995.1,Y
1560335015.2,286047002.8,P
1560335035.0,286047005.7,N
1560335035.9,286047005.7,N
1560335055.7,286047005.7,N
1560335075.6,286047006.5,N
1560335095.4,286047006.1,N
1560335115.3,286047006.5,N
1560335135.1,286047008.7,N
1560335166.0,286047008.4,E
1560335175.0,286047004.6,N
1560335175.9,286047004.6,P
1560335195.8,286047001.9,P
1560335215.6,286047001.7,N
1560335235.5,286047001.5,N
1560335255.3,286047001.9,N
1560335275.1,286047001.4,N
1560335295.9,286047001.6,N
1560335315.7,286047001.3,N
1560335335.5,286047002.0,N
1560335355.4,286047001.7,N
1560335375.2,286047003.5,Y
1560335395.1,286046999.7,P
1560335396.0,286046999.7,N
1560335415.8,286047002.8,N
1560335435.6,286047003.5,N
1560335455.5,286047003.3,N
1560335475.3,286047005.9,Y
1560335495.1,286046999.7,P
1560335515.9,286047002.7,N
1560335535.7,286047000.2,N
1560335555.6,286047002.6,N
1560335575.4,286046998.1,N
1560335595.2,286046999.2,N
1560335615.1,286046996.9,N
1560335616.0,286046996.9,N
1560335635.8,286046997.8,N
1560335655.6,286046997.7,N
1560335675.5,286046998.0,N
1560335695.3,286046998.0,N
1560335715.1,286046995.2,N
1560335735.9,286046995.4,N
1560335755.7,286046995.9,N
1560335775.6,286046996.9,N
1560335795.4,286046996.8,N
1560335815.2,286046993.3,Y
1560335835.1,286046996.4,P
1560335836.0,286046996.4,P
1560335855.8,286046994.6,P
1560335875.7,286046995.8,Y
1560335895.5,286046998.8,P
1560335915.3,286046998.9,N
1560335935.2,286046998.2,N
1560335955.0,286047001.1,N
1560335955.9,286047001.1,N
1560335975.7,286046999.0,N
1560335995.6,286046997.3,N
1560336015.4,286046999.5,N
1560336035.3,286046996.9,N
1560336055.1,286046996.8,N
1560336056.0,286046996.8,N
1560336075.8,286046997.5,N
1560336095.7,286046995.3,Y
1560336115.5,286046999.6,P
1560336135.4,286046997.7,P
1560336155.2,286046999.6,N
1560336175.0,286046997.7,N
1560336175.9,286046997.7,N
1560336195.8,286046995.5,Y
1560336215.6,286046997.1,P
1560336235.4,286046997.2,P
1560336255.3,286046993.8,P
1560336275.1,286046994.8,Y
1560336295.9,286046997.3,P
1560336315.7,286046998.9,P
1560336335.5,286046997.1,P
1560336355.4,286046997.1,Y
1560336375.2,286046999.7,P
1560336395.1,286047000.1,N
1560336396.0,286047000.1,N
1560336415.8,286047002.7,N
1560336435.6,286047000.1,N
1560336455.5,286046999.8,N
1560336475.3,286047000.2,N
1560336495.1,286046998.5,N
1560336515.9,286046999.1,N
1560336535.7,286046995.4,Y
1560336555.6,286046997.3,P
1560336575.4,286046993.4,P
1560336595.2,286046994.2,N
1560336615.1,286046995.9,N
1560336616.0,286046995.9,N
1560336635.8,286046993.3,Y
1560336655.6,286046997.4,P
1560336675.5,286046995.5,P
1560336695.3,286046993.8,P
1560336715.2,286046994.1,Y
1560336735.9,286046996.8,P
1560336755.7,286046995.6,P
1560336775.6,286046995.7,P
1560336795.4,286046997.5,Y
1560336815.2,286047000.8,P
1560336835.1,286046998.4,N
1560336836.0,286046998.4,N
1560336855.8,286046995.0,N
1560336875.7,286046996.3,N
1560336895.5,286046996.1,N
1560336915.3,286046997.4,N
1560336935.2,286046997.3,N
1560336955.0,286046998.5,N
1560336955.9,286046998.5,N
1560336975.7,286046998.3,N
1560336995.6,286046998.3,N
1560337015.4,286046999.5,N
1560337035.3,286046997.9,N
1560337055.1,286046997.2,N
1560337056.0,286046997.2,N
1560337075.8,286046998.0,N
1560337095.7,286046996.4,N
1560337115.5,286046996.3,N
1560337135.3,286046996.4,N
1560337155.2,286046995.1,Y
1560337175.0,286046999.6,P
1560337175.9,286046999.6,N
1560337195.8,286046998.7,N
